Simultaneous Nadir Overpasses (SNOs) Predictions

Prediction of SNOs between GOES-16 and NOAA-20 Satellite Orbit:

Table of predicted SNOs for the next 14.0 days since TLE Epoch: 5/23/2025
Index Date Time (GOES-16) GOES-16 Lat,Lon NOAA-20 Lat,Lon Distance(km) Time Diff (sec)
1 05/24/2025 20:09:22 0.01, -98.09 -0.66,-100.96 328.52 80
2 05/25/2025 19:48:00 0.01, -98.61 0.50, -96.47 244.20 80
3 05/27/2025 08:12:32 -0.01, -99.39 0.53,-101.77 271.79 80
4 05/28/2025 07:51:09 -0.01, -99.91 -0.58, -97.26 300.63 80
5 05/29/2025 20:15:50 0.01,-100.73 -0.41,-102.61 214.69 80
6 05/30/2025 19:54:27 0.01,-101.25 0.70, -98.10 358.26 80
7 06/01/2025 08:18:58 -0.01,-102.04 0.33,-103.41 156.97 80
8 06/02/2025 07:57:37 -0.01,-102.56 -0.84, -98.91 416.18 80
9 06/03/2025 20:22:16 0.00,-103.39 -0.19,-104.25 98.18 80
10 06/04/2025 20:00:54 0.01,-103.92 0.92, -99.74 475.41 80
11 06/06/2025 08:25:26 -0.00,-104.71 0.05,-105.06 39.10 80
